Location: Township of Marena
(38.1747°N, 99.6798°W)
Time: 14:04:19
(UTC+00:00)

Lacrosse 5 rocket - Pass Details

Date: 26 October 2020
Orbit: 458 x 638 km, 57.0° (Epoch: 28 November)

Event Time Altitude Azimuth Distance (km) Brightness Sun altitude
Exits shadow 10:58:13 36° 33° (NNE) 761 2.2 -24.3°
Drops below altitude 10° 11:00:34 10° 39° (NE) 1,658 4.3 -23.9°
Sets 11:02:46 0° 41° (NE) 2,566 5.4 -23.4°
